Zurück zum Katalog

FENGYUN 1C DEB

AktivPO
NORAD 38115·DEBRIS·🇨🇳 China

Gestartet May 10, 1999 von Taiyuan Satellite Launch Center

Loading…

Nächste Überflüge (nächste 24 Stunden)

TLE

AktuellSource: Space-Track

Epoche: Sep 12, 2026, 03:47 UTC

1 38115U 99025EPL 26255.15826422  .00005235  00000-0  25992-2 0  9997
2 38115  97.6988  36.0306 0253713 169.9089 190.7314 14.02084822278483

Verfolge FENGYUN 1C DEB in Echtzeit mit AllMySat

Download on the App Store